Location: Silverdale
(47.6506°N, 122.6941°W)
Time: 00:59:27
(UTC+00:00)

A-11 Canister half - Pass Details

Date: 07 October 2022
Orbit: 1524 x 1685 km, 47.3° (Epoch: 05 December)

Event Time Altitude Azimuth Distance (km) Brightness Sun altitude
Rises 04:15:35 0° 290° (WNW) 4,699 12.9 -26.6°
Reaches altitude 10° 04:18:43 10° 285° (WNW) 3,728 12.0 -27.1°
Maximum altitude 04:27:37 49° 214° (SW) 1,953 9.5 -28.4°
Enters shadow 04:30:59 36° 168° (SSE) 2,313 9.6 -29.0°
